Вернуться в каталог

TITAN 3C TRANSTAGE DEB

LostMEO
NORAD 33511·DEBRIS·🇺🇸 United States

Запущен Sep 26, 1968 с Cape Canaveral Space Force Station

Loading…

Ближайшие Пролёты (ближайшие 24 часа)

TLE

УстаревшееSource: Space-Track

Эпоха: Jul 4, 2026, 18:30 UTC

1 33511U 68081M   26185.77097532 -.00000313  00000-0  00000-0 0  9996
2 33511   1.7506  38.8138 0129095 301.8006 311.0606  1.00760662 67591

Отслеживайте TITAN 3C TRANSTAGE DEB в реальном времени с AllMySat

Download on the App Store